Location: Majestic Skies Ranch
(34.0000°N, 105.9300°W)
Time: 06:53:48
(UTC-06:00)

ISS - Visible Passes

Search period start: 03 September 2015 00:00
Search period end: 13 September 2015 00:00
Orbit: 400 x 403 km, 51.6° (Epoch: 01 September)

Date Brightness Start Highest point End Pass type
(mag) Time Alt. Az. Time Alt. Az. Time Alt. Az.
06 Sep -0.9 05:46:49 10° S 05:49:14 20° SE 05:51:44 10° E visible
08 Sep -2.8 05:36:48 19° SSW 05:38:55 55° SE 05:42:08 10° NE visible
09 Sep -1.3 04:46:09 23° ESE 04:46:09 23° ESE 04:48:28 10° ENE visible
10 Sep -3.0 05:28:00 40° W 05:28:44 50° NW 05:31:55 10° NE visible
11 Sep -1.1 04:37:08 26° ENE 04:37:08 26° ENE 04:38:42 10° NE visible
11 Sep -1.0 06:10:30 10° WNW 06:12:12 13° NNW 06:13:51 10° N visible
12 Sep -1.6 05:18:48 22° NNW 05:18:48 22° NNW 05:21:19 10° NNE visible
